KD5NDU-15 Weather Reports


time (UTC)temp
F
wind
direction
speed
knots
gust
knots
rain 1hr
in
rain 24hr
in
rain mn
in
humidity
%
barometer
mb
20260508005731 60 1 0.0 0.0 0.00 0.00 0.00 85 1013.1
20260508005231 61 1 221.6 0.0 0.00 0.00 0.00 85 1013.0
20260508004731 0 767 221.6 221.6 0.00 0.00 0.00
20260507235039 66 1 0.0 0.0 0.00 0.00 0.00 76 1013.0
20260507223142 69 1 0.0 1.7 0.00 0.00 0.00 60 1012.8
20260507222541 69 12 0.0 1.7 0.00 0.00 0.00 62 1012.8
20260507222039 69 17 0.9 1.7 0.00 0.00 0.00 61 1012.8
20260507221543 69 16 0.0 1.7 0.00 0.00 0.00 61 1012.8
20260507221041 69 359 0.0 1.7 0.00 0.00 0.00 64 1012.9
20260507220547 70 11 0.0 1.7 0.00 0.00 0.00 60 1012.7
20260507220039 70 27 0.0 0.0 0.00 0.00 0.00 63 1012.8
20260507215539 70 28 0.9 1.7 0.00 0.00 0.00 62 1012.7
20260507215039 70 32 0.0 2.6 0.00 0.00 0.00 60 1012.7
20260507214539 70 338 0.0 0.0 0.00 0.00 0.00 63 1012.5
20260507214039 70 338 0.0 1.7 0.00 0.00 0.00 61 1012.7
20260507213545 70 337 0.0 1.7 0.00 0.00 0.00 60 1012.4
20260507213413 71 349 0.9 1.7 0.00 0.00 0.00 62 1012.6
20260507211539 71 19 0.9 2.6 0.00 0.00 0.00 62 1012.4
20260507211043 71 52 0.9 1.7 0.00 0.00 0.00 61 1012.3
20260507210059 70 25 0.9 1.7 0.00 0.00 0.00 65 1012.4
20260507205555 70 1 0.9 3.5 0.00 0.00 0.00 61 1012.6
20260507205039 71 1 0.0 1.7 0.00 0.00 0.00 60 1012.6
20260507204039 71 1 0.9 2.6 0.00 0.00 0.00 62 1012.6
20260507203733 71 14 0.9 1.7 0.00 0.00 0.00 66 1012.7
20260507203039 71 355 0.9 2.6 0.00 0.00 0.00 61 1012.7
20260507202539 71 332 0.9 2.6 0.00 0.00 0.00 62 1012.7
20260507202324 71 132 0.9 2.6 0.00 0.00 0.00 60 1012.6
20260507201544 72 3 0.9 2.6 0.00 0.00 0.00 62 1012.8
20260507201040 72 19 1.7 2.6 0.00 0.00 0.00 59 1012.9
20260507200607 73 3 1.7 4.3 0.00 0.00 0.00 56 1012.9
20260507200049 74 300 0.9 2.6 0.00 0.00 0.00 58 1012.9
20260507195540 74 29 0.9 2.6 0.00 0.00 0.00 62 1012.8
20260507195107 73 359 0.9 1.7 0.00 0.00 0.00 63 1012.9
20260507194555 73 351 0.9 2.6 0.00 0.00 0.00 61 1013.0
20260507194040 72 359 0.9 2.6 0.00 0.00 0.00 61 1013.3
20260507193042 72 357 1.7 4.3 0.00 0.00 0.00 60 1013.6
20260507192720 72 321 1.7 3.5 0.00 0.00 0.00 59 1013.6
20260507192039 72 2 1.7 2.6 0.00 0.00 0.00 63 1013.6
20260507191540 73 356 1.7 4.3 0.00 0.00 0.00 67 1013.6
20260507191050 73 158 0.9 3.5 0.00 0.00 0.00 66 1013.6
20260507190547 73 354 0.9 3.5 0.00 0.00 0.00 61 1013.5
20260507190040 73 234 0.9 2.6 0.00 0.00 0.00 66 1013.4
20260507185547 73 2 0.9 1.7 0.00 0.00 0.00 62 1013.4
20260507185040 72 340 0.9 1.7 0.00 0.00 0.00 63 1013.6
20260507184554 72 160 0.9 2.6 0.00 0.00 0.00 61 1013.6
20260507184044 72 79 0.9 3.5 0.00 0.00 0.00 65 1013.6
20260507183544 72 46 0.9 1.7 0.00 0.00 0.00 63 1013.5
20260507183042 72 0 0.9 3.5 0.00 0.00 0.00 62 1013.6
20260507182555 71 32 0.9 3.5 0.00 0.00 0.00 63 1013.8
20260507182047 71 354 0.9 4.3 0.00 0.00 0.00 65 1013.6
20260507180726 71 359 0.9 2.6 0.00 0.00 0.00 66 1013.6
20260507180040 71 24 0.9 2.6 0.00 0.00 0.00 63 1013.7
20260507175542 71 353 0.9 2.6 0.00 0.00 0.00 67 1013.6
20260507175047 70 120 0.9 2.6 0.00 0.00 0.00 63 1013.6
20260507174540 70 359 0.9 4.3 0.00 0.00 0.00 71 1013.6
20260507174309 70 46 0.9 2.6 0.00 0.00 0.00 63 1013.6
20260507173554 70 259 0.9 4.3 0.00 0.00 0.00 66 1013.6
20260507173044 69 47 0.9 4.3 0.00 0.00 0.00 67 1013.7
20260507172602 69 22 0.9 2.6 0.00 0.00 0.00 64 1013.6
20260507172155 69 180 0.9 3.5 0.00 0.00 0.00 66 1013.7
20260507171540 69 340 0.9 3.5 0.00 0.00 0.00 68 1014.0
20260507171110 69 293 0.9 2.6 0.00 0.00 0.00 63 1014.2
20260507170540 69 96 0.9 2.6 0.00 0.00 0.00 66 1013.9
20260507170056 68 359 1.7 6.1 0.00 0.00 0.00 64 1014.2
20260507165540 68 359 0.9 2.6 0.00 0.00 0.00 65 1014.3
20260507165040 68 27 0.9 2.6 0.00 0.00 0.00 69 1014.3
20260507164540 67 348 1.7 3.5 0.00 0.00 0.00 68 1014.4
20260507164040 67 137 1.7 5.2 0.00 0.00 0.00 67 1014.4
20260507163604 67 61 1.7 4.3 0.00 0.00 0.00 66 1014.4
20260507163040 67 27 1.7 3.5 0.00 0.00 0.00 68 1014.4
20260507162545 66 330 0.9 3.5 0.00 0.00 0.00 66 1014.4
20260507161044 66 5 1.7 4.3 0.00 0.00 0.00 68 1014.6
20260507160603 66 1 1.7 2.6 0.00 0.00 0.00 69 1014.5
20260507160040 66 28 1.7 5.2 0.00 0.00 0.00 68 1014.4
20260507155614 65 0 1.7 3.5 0.00 0.00 0.00 72 1014.7
20260507155046 65 97 1.7 5.2 0.00 0.00 0.00 72 1014.5
20260507154542 65 69 1.7 4.3 0.00 0.00 0.00 73 1014.3
20260507154040 64 179 1.7 4.3 0.00 0.00 0.00 72 1014.7
20260507153544 64 303 1.7 4.3 0.00 0.00 0.00 75 1014.6
20260507153040 64 11 1.7 6.1 0.00 0.00 0.00 74 1014.8
20260507152542 64 136 1.7 7.0 0.00 0.00 0.00 75 1014.8
20260507152133 63 359 1.7 5.2 0.00 0.00 0.00 74 1014.8
20260507151550 63 6 1.7 4.3 0.00 0.00 0.00 76 1014.8
20260507151109 63 0 1.7 5.2 0.00 0.00 0.00 77 1014.8
20260507150546 63 11 0.9 3.5 0.00 0.00 0.00 77 1014.8
20260507150046 63 324 0.9 3.5 0.00 0.00 0.00 79 1014.8
20260507145549 62 354 1.7 3.5 0.00 0.00 0.00 81 1014.7
20260507145139 61 29 1.7 3.5 0.00 0.00 0.00 82 1014.8
20260507144540 61 213 1.7 7.0 0.00 0.00 0.00 79 1014.6
20260507144131 60 0 0.9 3.5 0.00 0.00 0.00 82 1014.8
20260507143550 60 63 1.7 3.5 0.00 0.00 0.00 85 1014.8
20260507143045 60 351 0.9 3.5 0.00 0.00 0.00 86 1014.8
20260507142559 59 39 0.9 5.2 0.00 0.00 0.00 85 1014.8
20260507142110 59 115 0.9 3.5 0.00 0.00 0.00 89 1014.7
20260507141221 57 61 0.9 4.3 0.00 0.00 0.00 90 1014.5
20260507140602 57 62 0.9 4.3 0.00 0.00 0.00 90 1014.3
20260507140042 57 0 1.7 2.6 0.00 0.00 0.00 90 1014.2
20260507135040 56 49 0.9 6.1 0.00 0.00 0.00 94 1014.0
20260507134114 55 5 0.9 5.2 0.00 0.00 0.00 95 1014.0
20260507133150 55 359 0.9 3.5 0.00 0.00 0.00 97 1014.2
20260507133044 55 359 0.9 3.5 0.00 0.00 0.00 97 1014.2
20260507132543 55 136 0.9 2.6 0.00 0.00 0.00 99 1014.0
20260507132055 55 323 0.9 2.6 0.00 0.00 0.00 99 1014.0
20260507131545 54 18 0.9 2.6 0.00 0.00 0.00 99 1013.8
20260507131045 54 30 0.9 2.6 0.00 0.00 0.00 100 1013.6
20260507130607 53 39 0.9 4.3 0.00 0.00 0.00 100 1013.3
20260507130044 53 11 0.9 2.6 0.00 0.00 0.00 100 1013.4
20260507125542 53 25 0.9 2.6 0.00 0.00 0.00 100 1013.5
20260507125040 53 12 0.9 2.6 0.00 0.00 0.00 100 1013.4
20260507124540 53 359 221.6 1.7 0.00 0.00 0.00 100 1013.4
20260507124040 53 352 221.6 221.6 0.00 0.00 0.00 100 1013.4
20260507123612 0 767 221.6 221.6 0.00 0.00 0.00
20260507123541 0 767 221.6 221.6 0.00 0.00 0.00
20260507123054 0 767 221.6 221.6 0.00 0.00 0.00